www.pogodaiklimat.ru

Погода и климат >> Архив погоды >> Россия >> Эвенкия >> Тутончаны


ПОГОДА в Тутончанах

  • Прогноз погоды в Тутончанах
  • Монитор погоды в Тутончанах
  • Климат города

АРХИВ ПОГОДЫ в Тутончанах

Время (UTC), дата Ветер
(напр.,м/с)
 
Видим.   Явления Облачность Т
(С)
Тd
(С)
f
(%)
Тe
(С)
Тes
(С)
Комфортность P
(гПа)
Po
(гПа)
Тmin
(С)
Tmax
(С)
R
(мм)
R24
(мм)
S
(см)
03 13.11 В 1 50 км {снег} 8/0
[Ac trans Cs]
-28.1 -31.2 75 -32 -32 опасность
обморожения
1031.1 1015.9 -28.4
06 13.11 В 1 50 км {снег} 4/0
[Ci fib]
-27.6 -30.7 75 -31 -31 опасность
обморожения
1031.7 1016.5
09 13.11 штиль 0 50 км 4/0
[Ci fib]
-29.7 -32.8 74 -30 -30 1032.6 1017.4
12 13.11 штиль 0 н/о 4/0
[Ci fib]
-33.7 -37.2 71 -34 -34 опасность
обморожения
1033.9 1018.3 -26.3 0.2
15 13.11 штиль 0 н/о 3/0
[Ci fib]
-36.5 -40.1 69 -37 -37 опасность
обморожения
1035.3 1019.4
18 13.11 штиль 0 н/о 9/0
[Cs]
-33.7 -37.2 71 -34 -34 опасность
обморожения
1035.4 1019.8
21 13.11 ЮЗ 1 н/о 4/0
[Ci fib]
-36.3 -39.7 71 -41 -41 опасность
обморожения
1036.2 1020.4
00 14.11 ЮЗ 1 н/о 3/0
[Ci fib]
-38.7 -42.7 66 -44 -44 опасность
обморожения
1036.7 1020.7 -38.8 38
03 14.11 ЮЗ 1 50 км 4/3 1000 м
[Sc Ci fib]
-39.8 -44.1 63 -45 -45 опасность
обморожения
1037.6 1021.5 -39.8
06 14.11 штиль 0 50 км 3/0
[Ci fib]
-35.0 -38.7 69 -35 -35 опасность
обморожения
1037.5 1021.8
09 14.11 ЮЗ 1 50 км 3/0
[Ci fib]
-35.3 -39.0 69 -40 -40 опасность
обморожения
1037.6 1021.9
12 14.11 штиль 0 н/о ясно -38.9 -43.2 64 -39 -39 опасность
обморожения
1038.6 1022.5 -33.1
15 14.11 штиль 0 н/о ясно -39.7 -43.6 66 -40 -40 опасность
обморожения
1039.6 1023.4
18 14.11 штиль 0 н/о ясно -41.4 -46.4 58 -41 -41 опасность
обморожения
1040.1 1023.9
21 14.11 штиль 0 н/о ясно -42.1 -47.0 59 -42 -42 опасность
обморожения
1040.4 1024.1
00 15.11 штиль 0 н/о ясно -42.4 -47.0 60 -42 -42 опасность
обморожения
1041.0 1024.7 -42.7 38
03 15.11 штиль 0 10 км дым ясно -42.3 -47.0 60 -42 -42 опасность
обморожения
1041.0 1024.7 -42.9
06 15.11 ЮВ 1 50 км 3/0
[Ci fib]
-39.0 -43.9 60 -44 -44 опасность
обморожения
1040.4 1024.3
09 15.11 штиль 0 50 км 9/0
[Ac trans Ci fib]
-36.7 -40.8 66 -37 -37 опасность
обморожения
1040.0 1024.0
12 15.11 штиль 0 н/о 9/0
[Ac trans Ci fib]
-36.1 -40.4 64 -36 -36 опасность
обморожения
1040.0 1024.1 -36.1
15 15.11 штиль 0 н/о 8/0
[Ci fib]
-38.9 -43.2 64 -39 -39 опасность
обморожения
1039.9 1023.8
18 15.11 штиль 0 н/о слабый снег 9/0
[Cs]
-38.0 -42.3 64 -38 -38 опасность
обморожения
1039.5 1023.5
21 15.11 штиль 0 н/о {снег} 8/0
[Cs]
-40.0 -44.1 65 -40 -40 опасность
обморожения
1040.0 1023.8
00 16.11 СВ 1 н/о слабый снег 8/0
[Cs]
-37.1 -41.5 63 -42 -42 опасность
обморожения
1039.3 1023.3 -40.9 0.2 37
03 16.11 В 1 10 км слабый снег 9/0
[Ac As]
-36.2 -40.4 65 -41 -41 опасность
обморожения
1038.8 1022.9
06 16.11 СВ 1 4000 м слабый снег 10/0
[Ac As]
-34.2 -37.8 70 -39 -39 опасность
обморожения
1038.3 1022.5
09 16.11 СВ 1 4000 м слабый снег 10/0
[Ac As]
-32.3 -35.9 70 -37 -37 опасность
обморожения
1037.5 1021.9
12 16.11 СВ 2 н/о слабый снег 10/0
[Ac As]
-31.1 -34.8 70 -39 -39 опасность
обморожения
1037.0 1021.5 -31.1 1
15 16.11 СВ 2 н/о слабый снег 10/0
[Ac As]
-30.3 -34.1 69 -38 -38 опасность
обморожения
1035.2 1019.8
18 16.11 В 2 н/о слабый снег 10/0
[Ac As]
-29.7 -32.8 74 -37 -37 опасность
обморожения
1033.8 1018.4
21 16.11 СВ 2 н/о слабый снег 10/0
[Ac As]
-28.8 -31.9 74 -36 -36 опасность
обморожения
1032.2 1016.9
00 17.11 СВ 1 н/о слабый снег 10/0
[Ac As]
-28.0 -31.2 74 -32 -32 опасность
обморожения
1030.9 1015.7 -31.1 2 38
03 17.11 СВ 1 50 км в посл. час снег 8/0
[Ac As]
-27.0 -30.2 74 -31 -31 опасность
обморожения
1030.9 1015.7
06 17.11 СВ 1 50 км {снег} 5/0
[Ac trans Ci fib]
-25.2 -28.4 75 -29 -29 1030.5 1015.3
09 17.11 СВ 2 50 км 4/0
[Ac trans]
-26.2 -29.4 74 -33 -33 опасность
обморожения
1030.4 1015.3
12 17.11 СВ 3 н/о 4/0
[Ac trans]
-28.1 -31.2 75 -37 -37 опасность
обморожения
1030.7 1015.5 -24.4 0.0
15 17.11 С 2 н/о слабый снег 10/0
[Ac As]
-28.0 -31.2 74 -35 -35 опасность
обморожения
1030.4 1015.2
18 17.11 СВ 2 н/о слабый снег 10/0
[Ac As]
-26.4 -29.6 74 -33 -33 опасность
обморожения
1029.2 1014.1
21 17.11 СВ 2 н/о {снег} 9/0
[Ac As]
-24.9 -28.1 75 -32 -32 опасность
обморожения
1028.0 1013.0
00 18.11 СВ 1 н/о {снег} 9/0
[Ac As]
-24.8 -28.0 75 -28 -28 1027.4 1012.4 -28.0 0.2 38
03 18.11 СВ 2 50 км 8/0
[Ac trans Ci fib]
-26.6 -29.7 75 -34 -34 опасность
обморожения
1027.0 1011.9
06 18.11 СВ 2 50 км 3/0
[Ac trans]
-25.6 -28.8 74 -32 -32 опасность
обморожения
1026.2 1011.2
09 18.11 СВ 1 50 км 3/0
[Ac trans]
-27.8 -31.0 74 -32 -32 опасность
обморожения
1026.2 1011.0
12 18.11 СВ 2 н/о 5/0
[Ac trans]
-29.3 -32.4 74 -37 -37 опасность
обморожения
1025.7 1010.5 -24.8
15 18.11 С 2 н/о слабый снег 10/8 1000 м
[Sc Ac As]
-25.5 -28.7 74 -32 -32 опасность
обморожения
1024.1 1009.1
18 18.11 СВ 2 н/о слабый ливневой снег 10/10 600 м
[Cb cap]
-23.9 -26.4 80 -30 -30 1022.1 1007.3
21 18.11 СВ 2 н/о слабый ливневой снег 10/10 600 м
[Cb cap]
-22.1 -24.7 79 -28 -28 1020.0 1005.3
00 19.11 СВ 2 н/о слабый ливневой снег 10/10 600 м
[Cb cap]
-21.1 -23.0 85 -27 -27 1017.8 1003.2 -29.4 1 44
03 19.11 В 1 4000 м слабый ливневой снег 10/10 600 м
[Cb cap]
-20.0 -21.9 85 -23 -23 1015.5 1000.9
06 19.11 СВ 1 4000 м слабый ливневой снег 10/10 600 м
[Cb cap]
-18.1 -20.0 85 -21 -21 1012.3 997.9
09 19.11 Ю 1 н/о слабый ливневой снег 10/10 600 м
[Cb cap]
-17.8 -19.7 85 -21 -21 1010.6 996.2
12 19.11 Ю 1 н/о слабый снег {ливн. осадки} 10/6 1000 м
[Sc Ac As]
-20.9 -22.8 85 -24 -24 1010.3 995.8 -17.4 2
15 19.11 штиль 0 н/о {снег} 10/6 1000 м
[Sc Ac As]
-22.2 -24.8 79 -22 -22 1011.0 996.4
18 19.11 ЮЗ 1 н/о слабый снег 10/6 1000 м
[Sc Ac As]
-21.6 -24.1 80 -25 -25 1012.4 997.8
21 19.11 штиль 0 н/о {снег} 10/0
[Ac As]
-27.0 -29.5 79 -27 -27 1014.3 999.4
00 20.11 штиль 0 н/о слабый снег 9/0
[Ac trans Cs]
-27.4 -29.8 80 -27 -27 1016.4 1001.5 -28.0 0.3 44

 

Местоположение метеостанции Тутончаны (Эвенкия, Россия): широта 64.20 долгота 93.78 высота над уровнем моря 106 м.

В архиве по умолчанию представлена погода в Тутончанах за последнюю неделю. Архивные данные за месяц целиком и за предыдущие месяцы, начиная с января 2011 года, Вы можете получить, выбрав интересующий диапазон дат из раскрывающегося списка и нажав кнопку "Ввод!".

Внимание! Время в таблицах - всемирное. Для получения местного времени необходимо прибавить поправку, которая в Тутончанах равна 7 ч.

Смотрите также архив погоды в соседних городах и на ближайших метеорологических станциях:

Погода в Кузьмовке (Эвенкия, Россия) (225 км)
Погода в Большом Пороге (Эвенкия, Россия) (237 км)
Погода в Тембенчи (Эвенкия, Россия) (258 км)
Погода в Агате (Эвенкия, Россия) (298 км)
Погода в Верещагино (Красноярский край, Россия) (305 км)
Погода в Бахте (Красноярский край, Россия) (306 км)
Погода в Верхнеимбатске (Красноярский край, Россия) (310 км)
Погода в Байките (Эвенкия, Россия) (310 км)
Погода в Туре (Эвенкия, Россия) (320 км)
Погода в Туруханске (Красноярский край, Россия) (326 км)

Пояснения к столбцам:

Ветер - указаны скорость ветра в м/с - средняя за 10 мин, порывы в срок и между сроками (в фигурных скобках) и направление, откуда дует ветер: С - северный, СВ - северо-восточный, В - восточный, ЮВ - юго-восточный, Ю - южный, ЮЗ - юго-западный, З - западный, СЗ - северо-западный.
Видимость - горизонтальная дальность видимости в метрах или километрах. При видимости от 1 до 10 км при отсутствии осадков обычно наблюдается дымка, при ухудшении видимости до 1 км и менее - туман. В сухую погоду видимость может ухудшаться дымом, пылью или мглою.
Явления - указаны атмосферные явления, наблюдавшиеся в срок или в последний час перед сроком; фигурными скобками обозначены явления, наблюдавшиеся между сроками (за 1-3 часа до срока); квадратными скобками обозначены град или гололедные отложения с указанием их диаметра в мм.
Облачность - указаны через наклонную черту общая и нижняя облачность в баллах и высота нижней границы облаков в метрах; квадратными скобками обозначены формы облаков: Ci - перистые, Cs - перисто-слоистые, Cc - перисто-кучевые, Ac - высококучевые, As - высокослоистые, Sc - слоисто-кучевые, Ns - слоисто-дождевые, Cu - кучевые, Cb - кучево-дождевые. Подробнее классификацию облаков см. в Атласе облаков (PDF).
T - Температура воздуха - температура, измеренная на высоте 2 м над землей.
Td - Температура точки росы - температура, при понижении до которой содержащийся в воздухе водяной пар достигнет насыщения.
f - Относительная влажность воздуха - влажноcть воздуха, измеренная на высоте 2 м над землей.
Te - Эффективная температура - температура, которую ощущает одетый по сезону человек в тени. Характеристика душности погоды. При расчете учитывается влияние влажности воздуха и скорости ветра на теплоощущения человека.
Tes - Эффективная температура на солнце - температура, которую ощущает человек, с поправкой на солнечный нагрев. Характеристика знойности погоды. Зависит от высоты солнца над горизонтом, облачности и скорости ветра. Ночью, в пасмурную погоду, а также при ветре 12 м/с и более поправка равна нулю.
P - Атмосферное давление - приведенное к уровню моря атмосферное давление.
Po - Атмосферное давление - измеренное на уровне метеостанции атмосферное давление.
Tmin - Минимальная температура - минимум температуры воздуха на высоте 2 м над землей.
Tmax - Максимальная температура - максимум температуры воздуха на высоте 2 м над землей.
R - Количество осадков - Количество выпавших осадков за период времени, мм. При наведении курсора мыши на число - период времени, за который выпало указанное количество осадков.
R24 - Количество осадков - Количество выпавших осадков за 24 часа, мм.
S - Снежный покров - Высота снежного покрова, см. При наведении курсора мыши на число - состояние снежного покрова и степень покрытия местности в баллах.